FW6744 Weather Reports


Display with metric or nautical units.
time (UTC)temp
F
wind
direction
speed
MPH
gust
MPH
rain 1hr
in
rain 24hr
in
rain mn
in
humidity
%
barometer
mb
20260904230107 74 221 0.0 0.0 0.16 0.20 0.20 95 1009.3
20260904225605 74 221 0.0 0.0 0.20 0.20 0.20 95 1009.2
20260904225330 74 221 0.0 0.0 0.20 0.20 0.20 95 1009.2
20260904224603 74 221 0.0 2.0 0.20 0.20 0.20 95 1009.3
20260904224327 74 221 0.0 2.0 0.20 0.20 0.20 94 1009.8
20260904223601 74 205 0.0 1.0 0.20 0.20 0.20 95 1010.0
20260904223100 74 51 0.0 1.0 0.20 0.20 0.20 95 1009.8
20260904222559 74 31 0.0 1.0 0.20 0.20 0.20 94 1009.4
20260904222058 74 30 1.0 3.0 0.18 0.18 0.19 94 1009.5
20260904221554 74 30 1.0 3.0 0.18 0.18 0.18 93 1009.9
20260904221056 74 32 0.0 2.0 0.17 0.17 0.17 92 1010.0
20260904220556 74 85 0.0 1.0 0.13 0.13 0.16 92 1009.8
20260904220054 74 118 0.0 1.0 0.04 0.04 0.05 92 1010.1
20260904215555 75 226 0.0 1.0 0.00 0.00 0.00 91 1009.7
20260904215053 75 83 0.0 3.0 0.00 0.00 0.00 89 1009.2
20260904214551 75 73 1.0 4.0 0.00 0.00 0.00 87 1009.3
20260904214314 76 30 2.0 6.0 0.00 0.00 0.00 84 1009.3
20260904213551 79 32 2.0 10.0 0.00 0.00 0.00 79 1009.9
20260904213051 83 167 3.0 15.0 0.00 0.00 0.00 74 1009.9
20260904212550 87 20 4.0 15.0 0.00 0.00 0.00 71 1009.0
20260904212323 90 108 2.0 15.0 0.00 0.00 0.00 66 1008.9
20260904211554 93 9 0.0 9.0 0.00 0.00 0.00 62 1008.1
20260904211047 93 65 0.0 0.0 0.00 0.00 0.00 63 1007.7
20260904210542 94 65 0.0 0.0 0.00 0.00 0.00 61 1007.6
20260904210036 94 65 0.0 0.0 0.00 0.00 0.00 60 1007.5
20260904205530 95 65 0.0 0.0 0.00 0.00 0.00 60 1007.6
20260904205258 96 65 0.0 0.0 0.00 0.00 0.00 59 1007.5
20260904204518 97 65 0.0 0.0 0.00 0.00 0.00 58 1007.5
20260904204234 97 65 0.0 1.0 0.00 0.00 0.00 57 1007.5
20260904203506 98 65 0.0 1.0 0.00 0.00 0.00 56 1007.5
20260904203001 99 68 0.0 1.0 0.00 0.00 0.00 55 1007.4
20260904202454 98 158 0.0 0.0 0.00 0.00 0.00 56 1007.4
20260904202221 96 157 0.0 0.0 0.00 0.00 0.00 57 1007.3
20260904201441 96 158 0.0 0.0 0.00 0.00 0.00 58 1007.2
20260904200936 96 158 0.0 0.0 0.00 0.00 0.00 58 1007.3
20260904200430 95 158 0.0 0.0 0.00 0.00 0.00 59 1007.4
20260904195923 95 158 0.0 0.0 0.00 0.00 0.00 59 1007.7
20260904195416 96 160 0.0 0.0 0.00 0.00 0.00 57 1007.8
20260904194910 97 160 0.0 1.0 0.00 0.00 0.00 55 1008.0
20260904194403 98 160 0.0 1.0 0.00 0.00 0.00 52 1008.0
20260904194119 99 28 0.0 2.0 0.00 0.00 0.00 51 1008.1
20260904193352 100 27 1.0 2.0 0.00 0.00 0.00 50 1008.0
20260904192846 101 157 1.0 2.0 0.00 0.00 0.00 49 1008.1
20260904192340 101 34 1.0 2.0 0.00 0.00 0.00 50 1008.3
20260904191834 102 36 0.0 2.0 0.00 0.00 0.00 50 1008.2
20260904191550 103 22 0.0 2.0 0.00 0.00 0.00 50 1008.3
20260904190822 102 258 0.0 2.0 0.00 0.00 0.00 48 1008.4
20260904190316 101 203 0.0 4.0 0.00 0.00 0.00 51 1008.4
20260904190031 101 164 0.0 4.0 0.00 0.00 0.00 49 1008.5
20260904185306 101 152 0.0 2.0 0.00 0.00 0.00 50 1008.7
20260904184757 101 147 0.0 3.0 0.00 0.00 0.00 50 1008.8
20260904184252 100 156 1.0 4.0 0.00 0.00 0.00 51 1009.0
20260904183745 100 205 1.0 4.0 0.00 0.00 0.00 50 1009.0
20260904183239 99 172 1.0 6.0 0.00 0.00 0.00 51 1009.1
20260904182734 99 202 1.0 6.0 0.00 0.00 0.00 51 1009.2
20260904182227 99 81 0.0 2.0 0.00 0.00 0.00 51 1009.2
20260904181721 98 39 0.0 2.0 0.00 0.00 0.00 54 1009.3
20260904181215 98 39 1.0 4.0 0.00 0.00 0.00 54 1009.4
20260904180709 98 38 1.0 4.0 0.00 0.00 0.00 52 1009.5
20260904180201 99 32 1.0 3.0 0.00 0.00 0.00 52 1009.6
20260904175920 99 210 0.0 3.0 0.00 0.00 0.00 50 1009.6
20260904175149 99 222 0.0 2.0 0.00 0.00 0.00 52 1009.7
20260904174648 99 274 1.0 2.0 0.00 0.00 0.00 53 1009.7
20260904174147 99 51 0.0 0.0 0.00 0.00 0.00 53 1009.8
20260904173842 98 267 0.0 1.0 0.00 0.00 0.00 54 1009.8
20260904173339 98 51 0.0 2.0 0.00 0.00 0.00 54 1009.8
20260904172835 97 198 0.0 2.0 0.00 0.00 0.00 54 1010.0
20260904172336 96 148 1.0 3.0 0.00 0.00 0.00 56 1009.9
20260904172104 97 37 1.0 3.0 0.00 0.00 0.00 55 1009.9
20260904171335 97 22 0.0 2.0 0.00 0.00 0.00 55 1009.8
20260904171101 97 206 1.0 4.0 0.00 0.00 0.00 57 1009.8
20260904170603 96 183 1.0 4.0 0.00 0.00 0.00 57 1009.8
20260904165830 96 200 0.0 3.0 0.00 0.00 0.00 57 1009.9
20260904165326 96 136 0.0 3.0 0.00 0.00 0.00 58 1009.8
20260904164818 95 201 0.0 3.0 0.00 0.00 0.00 59 1009.9
20260904164313 94 180 0.0 2.0 0.00 0.00 0.00 59 1010.0
20260904163807 94 214 1.0 4.0 0.00 0.00 0.00 61 1010.0
20260904163301 94 32 0.0 4.0 0.00 0.00 0.00 63 1010.0
20260904163235 93 149 1.0 4.0 0.00 0.00 0.00 62 1010.2
20260904162740 93 211 1.0 4.0 0.00 0.00 0.00 64 1010.2
20260904161751 92 27 1.0 4.0 0.00 0.00 0.00 63 1010.2
20260904161251 92 40 1.0 4.0 0.00 0.00 0.00 63 1010.2
20260904160747 91 48 0.0 4.0 0.00 0.00 0.00 63 1010.3
20260904160248 92 145 1.0 3.0 0.00 0.00 0.00 63 1010.2
20260904155746 91 31 1.0 4.0 0.00 0.00 0.00 64 1010.4
20260904155247 91 45 1.0 4.0 0.00 0.00 0.00 63 1010.5
20260904154746 91 151 0.0 3.0 0.00 0.00 0.00 65 1010.6
20260904154246 91 46 1.0 4.0 0.00 0.00 0.00 66 1010.6
20260904153744 90 229 1.0 4.0 0.00 0.00 0.00 64 1010.5
20260904153243 90 36 1.0 4.0 0.00 0.00 0.00 66 1010.5
20260904152743 90 125 1.0 4.0 0.00 0.00 0.00 67 1010.4
20260904152248 90 27 1.0 4.0 0.00 0.00 0.00 67 1010.4
20260904151745 90 215 0.0 3.0 0.00 0.00 0.00 67 1010.4
20260904151241 90 39 1.0 4.0 0.00 0.00 0.00 69 1010.5
20260904150739 89 39 1.0 4.0 0.00 0.00 0.00 68 1010.4
20260904150241 89 163 0.0 2.0 0.00 0.00 0.00 70 1010.4
20260904145741 89 173 0.0 2.0 0.00 0.00 0.00 70 1010.4
20260904145239 89 70 0.0 2.0 0.00 0.00 0.00 70 1010.4
20260904144739 88 131 1.0 3.0 0.00 0.00 0.00 72 1010.4
20260904144503 88 39 1.0 4.0 0.00 0.00 0.00 72 1010.3
20260904143740 87 184 1.0 4.0 0.00 0.00 0.00 72 1010.3
20260904143241 87 215 0.0 3.0 0.00 0.00 0.00 73 1010.3
20260904142739 87 33 0.0 3.0 0.00 0.00 0.00 73 1010.3
20260904142241 87 140 0.0 3.0 0.00 0.00 0.00 73 1010.3
20260904141741 86 67 0.0 3.0 0.00 0.00 0.00 74 1010.3
20260904141240 86 23 0.0 3.0 0.00 0.00 0.00 76 1010.2
20260904140739 86 88 0.0 3.0 0.00 0.00 0.00 77 1010.2
20260904140503 85 32 0.0 4.0 0.00 0.00 0.00 77 1010.3
20260904135740 85 27 0.0 4.0 0.00 0.00 0.00 77 1010.3
20260904135239 85 197 0.0 3.0 0.00 0.00 0.00 77 1010.2
20260904134737 84 161 0.0 2.0 0.00 0.00 0.00 78 1010.1
20260904134242 84 212 0.0 3.0 0.00 0.00 0.00 78 1010.1
20260904133946 83 99 0.0 3.0 0.00 0.00 0.00 79 1010.1
20260904133220 83 223 0.0 2.0 0.00 0.00 0.00 80 1010.0
20260904132714 83 218 1.0 4.0 0.00 0.00 0.00 80 1009.8
20260904132208 83 210 0.0 4.0 0.00 0.00 0.00 80 1010.0
20260904131702 82 146 0.0 2.0 0.00 0.00 0.00 81 1010.0
20260904131156 82 70 0.0 1.0 0.00 0.00 0.00 82 1010.1
20260904130650 82 193 0.0 1.0 0.00 0.00 0.00 82 1010.0
20260904130623 82 64 0.0 1.0 0.00 0.00 0.00 82 1010.1
20260904125638 81 138 0.0 1.0 0.00 0.00 0.00 82 1010.1
20260904125131 81 217 0.0 2.0 0.00 0.00 0.00 83 1010.2
20260904124849 81 217 0.0 4.0 0.00 0.00 0.00 83 1010.2
20260904124349 81 206 0.0 5.0 0.00 0.00 0.00 83 1010.3
20260904123614 80 25 0.0 5.0 0.00 0.00 0.00 84 1010.2
20260904123108 80 200 0.0 2.0 0.00 0.00 0.00 84 1010.1
20260904122832 80 52 0.0 4.0 0.00 0.00 0.00 85 1010.1
20260904122055 80 60 0.0 4.0 0.00 0.00 0.00 85 1010.1
20260904121549 79 11 1.0 3.0 0.00 0.00 0.00 86 1010.2
20260904121044 78 89 1.0 5.0 0.00 0.00 0.00 88 1010.3
20260904121028 78 273 0.0 5.0 0.00 0.00 0.00 90 1010.2
20260904120032 76 208 0.0 3.0 0.00 0.00 0.00 92 1010.2
20260904115526 76 190 0.0 1.0 0.00 0.00 0.00 93 1010.1
20260904115020 75 155 0.0 1.0 0.00 0.00 0.00 94 1009.9
20260904114742 75 43 0.0 0.0 0.00 0.00 0.00 94 1009.9
20260904114225 74 43 0.0 0.0 0.00 0.00 0.00 93 1010.0
20260904113502 74 44 0.0 0.0 0.00 0.00 0.00 93 1010.1
20260904112956 74 44 0.0 0.0 0.00 0.00 0.00 93 1010.0
20260904112450 74 43 0.0 0.0 0.00 0.00 0.00 93 1010.1
20260904111944 74 43 0.0 0.0 0.00 0.00 0.00 92 1010.1
20260904111437 74 43 0.0 0.0 0.00 0.00 0.00 92 1010.1
20260904110932 74 43 0.0 0.0 0.00 0.00 0.00 92 1010.1
20260904110425 74 43 0.0 0.0 0.00 0.00 0.00 92 1010.0
20260904105919 74 43 0.0 0.0 0.00 0.00 0.00 92 1010.0
20260904105412 74 44 0.0 0.0 0.00 0.00 0.00 91 1010.0
20260904104906 74 43 0.0 0.0 0.00 0.00 0.00 91 1010.0
20260904104400 74 43 0.0 0.0 0.00 0.00 0.00 91 1010.0
20260904103854 74 43 0.0 0.0 0.00 0.00 0.00 91 1010.0
20260904103348 75 44 0.0 0.0 0.00 0.00 0.00 91 1009.9
20260904102842 75 43 0.0 0.0 0.00 0.00 0.00 91 1009.9
20260904102335 75 43 0.0 0.0 0.00 0.00 0.00 90 1009.9
20260904101830 75 43 0.0 0.0 0.00 0.00 0.00 90 1010.0
20260904101549 75 44 0.0 0.0 0.00 0.00 0.00 90 1009.9
20260904100818 75 43 0.0 0.0 0.00 0.00 0.00 90 1009.9
20260904100312 75 43 0.0 0.0 0.00 0.00 0.00 90 1010.0
20260904095806 75 43 0.0 0.0 0.00 0.00 0.00 89 1010.0
20260904095259 75 43 0.0 0.0 0.00 0.00 0.00 89 1010.0
20260904094754 75 43 0.0 0.0 0.00 0.00 0.00 89 1010.0
20260904094248 76 43 0.0 0.0 0.00 0.00 0.00 89 1010.0
20260904093742 76 43 0.0 0.0 0.00 0.00 0.00 89 1010.0
20260904093236 76 43 0.0 0.0 0.00 0.00 0.00 88 1010.0
20260904092730 76 43 0.0 0.0 0.00 0.00 0.00 88 1010.1
20260904092224 76 43 0.0 0.0 0.00 0.00 0.00 88 1010.1
20260904091941 76 43 0.0 0.0 0.00 0.00 0.00 87 1010.2
20260904091211 76 43 0.0 0.0 0.00 0.00 0.00 87 1010.2
20260904090705 76 43 0.0 0.0 0.00 0.00 0.00 87 1010.3
20260904090426 76 43 0.0 0.0 0.00 0.00 0.00 87 1010.2
20260904085653 77 43 0.0 0.0 0.00 0.00 0.00 86 1010.3
20260904085148 77 43 0.0 0.0 0.00 0.00 0.00 86 1010.3
20260904084642 77 43 0.0 0.0 0.00 0.00 0.00 86 1010.3
20260904084356 77 43 0.0 0.0 0.00 0.00 0.00 85 1010.3
20260904083630 77 43 0.0 0.0 0.00 0.00 0.00 85 1010.2
20260904083123 77 43 0.0 0.0 0.00 0.00 0.00 85 1010.1
20260904082618 77 43 0.0 0.0 0.00 0.00 0.00 85 1010.1
20260904082112 77 43 0.0 0.0 0.00 0.00 0.00 85 1010.1
20260904081605 78 43 0.0 0.0 0.00 0.00 0.00 85 1010.1
20260904081059 78 43 0.0 0.0 0.00 0.00 0.00 84 1010.0
20260904080603 78 43 0.0 0.0 0.00 0.00 0.00 84 1009.9
20260904080048 78 43 0.0 0.0 0.00 0.00 0.00 83 1010.0
20260904075542 78 43 0.0 0.0 0.00 0.00 0.00 82 1010.0
20260904075036 78 43 0.0 0.0 0.00 0.00 0.00 82 1009.9
20260904074530 78 43 0.0 0.0 0.00 0.00 0.00 82 1010.0
20260904074024 79 43 0.0 0.0 0.00 0.00 0.00 82 1009.9
20260904073518 79 43 0.0 1.0 0.00 0.00 0.00 82 1009.8
20260904073012 79 43 0.0 1.0 0.00 0.00 0.00 82 1009.8
20260904072506 79 44 0.0 0.0 0.00 0.00 0.00 81 1009.6
20260904072000 79 43 0.0 0.0 0.00 0.00 0.00 81 1009.5
20260904071714 79 43 0.0 1.0 0.00 0.00 0.00 81 1009.7
20260904071432 79 43 0.0 1.0 0.00 0.00 0.00 81 1009.6
20260904070442 80 43 0.0 0.0 0.00 0.00 0.00 80 1009.6
20260904070203 80 43 0.0 0.0 0.00 0.00 0.00 80 1009.5
20260904065430 80 43 0.0 0.0 0.00 0.00 0.00 79 1009.7
20260904064924 80 43 0.0 0.0 0.00 0.00 0.00 80 1009.8
20260904064418 81 43 0.0 0.0 0.00 0.00 0.00 79 1009.8
20260904063912 81 43 0.0 1.0 0.00 0.00 0.00 79 1009.8
20260904063414 81 43 0.0 1.0 0.00 0.00 0.00 78 1009.8
20260904063138 82 43 0.0 1.0 0.00 0.00 0.00 78 1010.0
20260904062411 82 43 0.0 1.0 0.00 0.00 0.00 78 1010.0
20260904062132 82 43 0.0 4.0 0.00 0.00 0.00 79 1010.2
20260904061409 83 43 0.0 4.0 0.00 0.00 0.00 79 1010.5
20260904060910 83 30 0.0 2.0 0.00 0.00 0.00 80 1010.6
20260904060410 83 34 1.0 2.0 0.00 0.00 0.00 79 1010.7
20260904055908 84 35 1.0 3.0 0.00 0.00 0.00 79 1010.8
20260904055409 84 33 2.0 6.0 0.00 0.00 0.00 79 1010.9
20260904054908 84 174 1.0 6.0 0.00 0.00 0.00 78 1010.9
20260904054408 85 29 1.0 5.0 0.00 0.00 0.00 76 1010.5
20260904054126 85 115 0.0 5.0 0.00 0.00 0.00 76 1009.8
20260904053406 85 166 1.0 6.0 0.00 0.00 0.00 76 1009.7
20260904052908 85 212 1.0 6.0 0.00 0.00 0.00 76 1009.7
20260904052403 84 22 0.0 3.0 0.00 0.00 0.00 76 1009.7
20260904051903 84 211 0.0 3.0 0.00 0.00 0.00 77 1009.7
20260904051404 84 231 0.0 3.0 0.00 0.00 0.00 78 1009.7
20260904050902 84 176 0.0 1.0 0.00 0.00 0.00 79 1009.8
20260904050404 83 175 0.0 1.0 0.00 0.00 0.00 79 1009.8
20260904045903 83 226 0.0 1.0 0.00 0.00 0.00 80 1009.9
20260904045402 83 226 0.0 1.0 0.00 0.00 0.00 80 1010.1
20260904044903 83 225 0.0 0.0 0.00 0.00 0.00 81 1010.0
20260904044404 83 225 0.0 0.0 0.00 0.00 0.00 81 1010.0
20260904043902 83 225 0.0 0.0 0.00 0.00 0.00 81 1010.1
20260904043623 83 225 0.0 0.0 0.00 0.00 0.00 81 1010.1
20260904042902 83 225 0.0 0.0 0.00 0.00 0.00 81 1010.0
20260904042404 83 225 0.0 0.0 0.00 0.00 0.00 81 1010.1
20260904042128 83 225 0.0 1.0 0.00 0.00 0.00 81 1010.1
20260904041404 83 225 0.0 1.0 0.00 0.00 0.00 81 1010.1
20260904040905 83 225 0.0 0.0 0.00 0.00 0.00 81 1010.2
20260904040406 83 225 0.0 1.0 0.00 0.00 0.00 81 1010.2
20260904035905 83 225 0.0 1.0 0.00 0.00 0.00 81 1010.1
20260904035619 82 225 0.0 0.0 0.00 0.00 0.00 82 1010.3
20260904034853 82 225 0.0 0.0 0.00 0.00 0.00 83 1010.3
20260904034346 82 226 0.0 0.0 0.00 0.00 0.00 83 1010.3
20260904033841 81 225 0.0 0.0 0.00 0.00 0.00 84 1010.2
20260904033558 81 226 0.0 0.0 0.00 0.00 0.00 84 1010.4
20260904032828 81 226 0.0 0.0 0.00 0.00 0.00 85 1010.5
20260904032323 81 226 0.0 0.0 0.00 0.00 0.00 85 1010.6
20260904032034 81 226 0.0 0.0 0.00 0.00 0.00 85 1010.4
20260904031310 82 225 0.0 0.0 0.00 0.00 0.00 85 1010.4
20260904031024 82 226 0.0 0.0 0.00 0.00 0.00 85 1010.3
20260904030258 82 226 0.0 0.0 0.00 0.00 0.00 85 1010.3
20260904025753 82 226 0.0 0.0 0.00 0.00 0.00 85 1010.3
20260904025247 82 226 0.0 0.0 0.00 0.00 0.00 85 1010.4
20260904024741 82 225 0.0 0.0 0.00 0.00 0.00 85 1010.3
20260904024235 82 226 0.0 0.0 0.00 0.00 0.00 86 1010.3
20260904023729 82 226 0.0 0.0 0.00 0.00 0.00 86 1010.3
20260904023451 82 225 0.0 0.0 0.00 0.00 0.00 87 1010.3
20260904022717 82 226 0.0 0.0 0.00 0.00 0.00 87 1010.3
20260904022211 82 226 0.0 0.0 0.00 0.00 0.00 88 1010.3
20260904022153 82 225 0.0 0.0 0.00 0.00 0.00 88 1010.2
20260904021159 82 226 0.0 0.0 0.00 0.00 0.00 87 1010.2
20260904020652 82 226 0.0 0.0 0.00 0.00 0.00 87 1010.1
20260904020146 82 226 0.0 0.0 0.00 0.00 0.00 87 1010.3
20260904015901 82 225 0.0 0.0 0.00 0.00 0.00 87 1010.4
20260904015140 82 225 0.0 0.0 0.00 0.00 0.00 87 1010.5
20260904014642 82 226 0.0 0.0 0.00 0.00 0.00 87 1010.5
20260904014638 82 225 0.0 0.0 0.00 0.00 0.00 87 1010.5
20260904013640 82 226 0.0 0.0 0.00 0.00 0.00 86 1010.6
20260904013138 83 226 0.0 0.0 0.00 0.00 0.00 85 1010.6
20260904012638 83 226 0.0 0.0 0.00 0.00 0.00 85 1010.6
20260904012140 83 226 0.0 0.0 0.00 0.00 0.00 85 1010.8
20260904011637 83 226 0.0 0.0 0.00 0.00 0.00 85 1010.8
20260904011356 83 226 0.0 0.0 0.00 0.00 0.00 84 1010.7
20260904010637 83 226 0.0 0.0 0.00 0.00 0.00 84 1010.8
20260904010358 83 226 0.0 0.0 0.00 0.00 0.00 84 1010.9
20260904005855 83 225 0.0 0.0 0.00 0.00 0.00 84 1011.0
20260904005139 84 226 0.0 0.0 0.00 0.00 0.00 84 1011.0
20260904004633 84 226 0.0 0.0 0.00 0.00 0.00 83 1011.0
20260904004401 84 226 0.0 0.0 0.00 0.00 0.00 84 1010.9
20260904003633 84 225 0.0 0.0 0.00 0.00 0.00 83 1010.9
20260904003131 84 226 0.0 0.0 0.00 0.00 0.00 82 1011.0
20260904002631 84 226 0.0 0.0 0.00 0.00 0.00 82 1010.8
20260904002131 85 226 0.0 0.0 0.00 0.00 0.00 82 1010.7
20260904001852 85 226 0.0 0.0 0.00 0.00 0.00 81 1010.6
20260904001131 85 226 0.0 0.0 0.00 0.00 0.00 81 1010.6
20260904000632 85 226 0.0 0.0 0.00 0.00 0.00 81 1010.5
20260904000120 86 226 0.0 0.0 0.00 0.00 0.00 80 1010.3
20260903235128 86 226 0.0 0.0 0.00 0.00 0.00 80 1010.2
20260903234627 86 226 0.0 0.0 0.00 0.00 0.00 79 1010.0
20260903234344 87 226 0.0 0.0 0.00 0.00 0.00 79 1010.1
20260903234227 86 225 0.0 0.0 0.00 0.00 0.00 79 1009.9
20260903233126 87 226 0.0 0.0 0.00 0.00 0.00 78 1010.1
20260903232853 87 226 0.0 0.0 0.00 0.00 0.00 78 1010.0
20260903232128 87 226 0.0 0.0 0.00 0.00 0.00 78 1010.0
20260903231622 88 225 0.0 0.0 0.00 0.00 0.00 77 1010.0
20260903231121 88 226 0.0 0.0 0.00 0.00 0.00 76 1010.0
20260903230622 88 226 0.0 0.0 0.00 0.00 0.00 76 1010.0